Theta_e
344 345 353 356 356 359 360 360 360 360 360 360 360 358 356 354 352 350 347 346 344 342 341 341 340 340 340 341 341 341 341 343
339 342 352 356 355 357 359 359 359 359 359 360 360 358 356 355 352 349 347 345 344 343 343 342 342 344 344 343 343 344 343 345
337 344 350 355 354 354 355 357 357 358 358 359 359 357 356 355 352 350 348 347 347 347 347 346 346 346 347 347 347 347 346 346
340 345 348 350 352 354 352 353 355 355 355 356 356 355 355 354 352 350 349 348 348 348 348 348 347 348 348 347 347 348 346 344
342 342 346 348 348 347 347 353 352 352 352 353 353 353 353 352 351 350 347 348 348 349 348 348 348 348 348 348 348 348 345 345
341 339 342 345 345 346 346 348 351 352 351 351 350 351 348 343 344 344 346 345 348 348 349 349 348 348 348 348 348 346 346 338
339 341 339 343 344 343 346 345 344 344 344 343 342 342 341 337 338 342 344 347 347 348 348 349 349 348 346 340 340 345 340 338
341 342 341 338 340 340 340 343 342 341 341 340 339 338 338 338 337 339 335 340 338 344 338 343 343 343 339 338 338 336 338 338
340 342 342 339 337 336 336 340 340 339 339 340 339 337 337 335 333 332 333 333 333 334 334 334 336 338 338 339 338 336 334 336
335 341 343 340 337 334 333 336 337 336 336 336 337 337 336 335 332 332 330 330 333 330 334 332 334 335 337 338 338 336 335 335
330 341 342 340 338 334 333 335 337 337 336 334 336 336 336 335 333 331 330 329 330 331 333 333 331 332 333 335 334 335 335 336
330 335 341 341 340 336 335 338 339 339 339 337 336 337 337 335 334 332 330 329 329 330 330 332 329 328 329 332 332 333 333 336
327 331 334 342 338 340 338 339 340 341 340 340 339 339 339 337 335 334 332 330 331 331 330 331 330 326 327 329 330 332 333 334
326 329 333 333 334 341 343 341 341 342 341 341 341 341 341 340 338 335 335 333 330 331 331 330 330 328 325 327 330 331 330 332
325 326 332 334 337 338 341 345 343 342 341 339 342 342 342 342 340 336 337 334 334 330 331 330 328 329 327 328 331 330 329 333
323 325 325 326 337 343 343 340 340 341 341 342 342 341 341 344 342 338 336 336 336 333 332 332 329 327 326 327 323 323 325 329
320 326 327 329 340 345 344 343 338 341 336 340 342 340 340 343 344 341 338 337 337 336 332 331 330 326 326 325 321 321 321 320
318 326 329 330 339 344 342 338 328 329 328 329 330 330 333 340 345 343 341 339 338 337 334 331 331 328 324 324 327 325 319 317
318 324 328 329 335 337 334 332 329 325 322 325 324 332 334 341 344 343 341 339 337 336 333 333 333 327 325 325 329 329 324 320
Wind_Speed
17 16 18 21 22 25 23 23 21 20 19 19 18 17 16 15 14 12 12 11 11 11 11 10 10 9 8 6 5 4 2 3
15 13 15 20 22 24 24 23 23 22 20 19 19 18 18 15 14 13 12 12 12 12 12 11 10 9 8 7 6 5 4 6
20 15 15 20 22 23 23 23 22 21 21 19 18 17 17 16 15 14 13 12 13 12 12 11 10 9 8 7 7 7 6 7
14 15 13 13 16 20 22 21 20 20 20 19 18 17 17 16 15 14 14 13 13 13 12 11 11 11 9 8 8 7 7 9
11 13 11 10 10 10 12 19 19 18 19 18 18 17 16 16 15 16 15 14 15 14 13 12 12 11 10 9 9 8 8 10
8 10 9 9 8 8 9 12 16 18 17 17 16 17 13 7 9 12 13 15 15 15 14 13 12 11 10 10 9 10 9 2
12 11 12 11 11 8 8 8 8 9 8 8 7 8 6 7 7 9 11 16 15 15 14 13 13 12 11 4 3 9 2 3
16 11 13 13 11 12 9 6 4 4 4 5 8 7 6 5 5 6 3 5 5 13 5 8 7 5 5 4 4 4 4 4
17 17 15 16 15 14 8 8 7 7 6 6 8 9 6 5 5 5 4 5 5 5 6 5 4 5 6 6 6 6 6 4
9 10 11 11 13 13 11 8 7 7 7 8 7 8 8 7 7 6 6 6 7 5 6 6 6 6 7 7 7 7 7 6
10 14 14 12 11 12 11 9 9 9 7 6 7 9 12 9 8 8 7 7 6 7 7 8 8 8 7 6 8 9 8 6
7 11 14 16 14 12 14 11 9 7 7 7 8 10 12 11 10 9 7 7 7 7 8 7 5 4 4 5 8 7 6 8
8 13 13 12 12 13 12 9 8 9 8 8 8 7 12 12 11 9 7 8 7 6 7 7 6 4 5 5 6 6 6 5
10 12 14 13 15 14 10 7 7 7 6 7 6 7 10 12 12 10 8 7 7 6 7 7 6 6 4 4 5 5 5 5
11 8 13 17 18 18 12 10 4 4 5 5 7 8 9 8 12 11 8 7 9 6 6 5 6 5 4 6 6 6 4 4
9 15 13 9 13 10 5 4 4 8 5 5 7 9 9 8 10 11 8 8 8 9 10 10 5 6 3 4 4 1 2 4
9 13 12 14 12 11 10 8 4 8 5 8 8 8 9 9 9 10 10 9 11 7 6 7 6 3 3 4 4 2 1 4
10 12 14 15 15 15 15 7 3 4 1 3 4 3 6 10 11 12 12 10 9 7 6 5 6 7 4 2 3 5 1 4
12 11 14 15 15 15 14 12 10 6 6 5 5 4 5 8 10 10 11 9 7 5 6 6 5 4 5 5 1 1 1 5
Wind_Direction
151 158 169 176 160 149 153 155 158 162 162 163 165 169 172 173 170 168 173 177 179 182 179 178 182 183 178 183 203 218 254 301
155 157 166 177 164 155 157 160 163 165 167 170 170 171 176 176 177 176 182 187 190 195 192 190 191 193 192 197 216 239 275 286
156 158 167 180 172 162 159 164 167 167 168 172 175 175 178 178 179 182 189 193 200 206 204 200 196 200 201 209 221 230 253 276
151 153 168 180 176 167 163 167 171 169 170 173 175 179 180 181 182 185 192 199 206 210 211 208 204 204 200 210 230 238 249 267
143 158 164 170 173 170 169 171 174 175 175 177 178 182 181 184 189 191 192 200 209 210 212 214 211 209 209 212 222 240 253 266
146 165 164 165 168 169 170 177 178 179 180 183 186 184 182 181 193 198 194 202 210 214 214 217 216 214 212 222 230 245 257 244
173 179 174 170 171 159 175 177 179 180 178 182 184 187 176 176 188 195 200 206 212 218 220 220 221 216 218 207 231 254 248 233
187 169 181 178 173 168 180 172 185 180 174 180 183 188 180 179 196 205 177 202 193 220 215 220 223 214 199 199 221 229 241 232
179 188 181 184 176 183 169 177 186 186 188 189 199 188 177 180 191 203 186 194 182 200 189 198 203 204 198 206 217 227 240 236
173 173 177 179 179 183 186 178 176 200 198 197 188 190 188 190 193 190 199 190 196 182 187 197 206 208 207 210 222 228 237 235
162 168 164 180 188 176 180 189 195 188 193 186 195 196 198 194 196 196 202 204 194 196 194 200 203 209 213 205 221 235 235 236
196 157 175 181 183 187 183 199 187 189 189 193 206 198 199 197 197 194 200 201 199 193 192 201 202 192 190 202 219 227 230 232
193 175 176 180 190 186 195 186 197 180 193 201 203 202 202 194 198 191 198 199 195 184 190 195 196 195 202 196 217 231 233 225
220 199 185 179 180 188 193 191 197 183 183 200 196 207 204 198 194 190 204 195 181 183 191 188 200 191 181 193 210 223 230 234
201 229 196 180 184 183 199 202 185 176 200 201 210 210 202 196 190 194 201 190 182 191 186 181 179 198 174 196 209 220 225 226
196 203 222 225 200 171 155 161 190 210 203 225 219 211 201 204 191 189 201 188 186 200 197 188 173 176 195 166 113 39 265 232
203 205 205 207 207 186 189 197 186 193 210 213 212 216 204 198 187 190 188 186 190 185 179 177 162 145 169 170 142 116 229 322
210 188 203 195 200 197 194 176 84 90 62 156 211 210 220 201 193 188 180 186 186 178 179 177 169 163 151 189 201 143 122 225
218 192 190 194 192 197 187 184 186 171 181 211 184 191 229 193 180 181 177 171 158 156 169 177 174 161 133 165 123 313 123 141